Time,TemperatureF,DewpointF,PressureIn,WindDirection,WindDirectionDegrees,WindSpeedMPH,WindSpeedGustMPH,Humidity,HourlyPrecipIn,Conditions,Clouds,dailyrainin,SolarRadiationWatts/m^2,SoftwareType,DateUTC
2013-03-28 13:02:00,70.0,50.0,-100.00,WSW,247,6.0,11.0,50,-99.99,,,0.00,936.000000,,2013-03-28 18:02:00,
2013-03-28 13:52:00,70.0,50.0,-100.00,WSW,247,6.0,11.0,50,-99.99,,,0.00,936.000000,,2013-03-28 18:52:00,
2013-03-28 14:02:00,71.0,51.0,-100.00,SW,227,6.0,12.0,49,0.00,,,0.00,790.000000,,2013-03-28 19:02:00,
2013-03-28 14:33:00,71.0,51.0,-100.00,SW,227,6.0,12.0,49,0.00,,,0.00,790.000000,,2013-03-28 19:33:00,
2013-03-28 14:43:00,71.0,51.0,-100.00,SW,227,6.0,12.0,49,0.00,,,0.00,790.000000,,2013-03-28 19:43:00,
2013-03-28 14:52:00,71.0,51.0,-100.00,SW,227,6.0,12.0,49,0.00,,,0.00,790.000000,,2013-03-28 19:52:00,
2013-03-28 15:02:00,70.0,50.0,-100.00,SSW,201,4.0,9.0,49,0.00,,,0.00,450.000000,,2013-03-28 20:02:00,
2013-03-28 15:33:00,70.0,50.0,-100.00,SSW,201,4.0,9.0,49,0.00,,,0.00,450.000000,,2013-03-28 20:33:00,
2013-03-28 15:42:00,70.0,50.0,-100.00,SSW,201,4.0,9.0,49,0.00,,,0.00,450.000000,,2013-03-28 20:42:00,
2013-03-28 15:53:00,70.0,50.0,-100.00,SSW,201,4.0,9.0,49,0.00,,,0.00,450.000000,,2013-03-28 20:53:00,
2013-03-28 16:02:00,71.0,50.0,-100.00,SSE,165,5.0,12.0,48,0.00,,,0.00,438.000000,,2013-03-28 21:02:00,
2013-03-28 16:33:00,71.0,50.0,-100.00,SSE,165,5.0,12.0,48,0.00,,,0.00,438.000000,,2013-03-28 21:33:00,
2013-03-28 16:43:00,71.0,50.0,-100.00,SSE,165,5.0,12.0,48,0.00,,,0.00,438.000000,,2013-03-28 21:43:00,
2013-03-28 16:53:00,71.0,50.0,-100.00,SSE,165,5.0,12.0,48,0.00,,,0.00,438.000000,,2013-03-28 21:53:00,
2013-03-28 17:02:00,71.0,50.0,-100.00,SSE,160,5.0,11.0,47,0.00,,,0.00,336.000000,,2013-03-28 22:02:00,
2013-03-28 17:32:00,71.0,50.0,-100.00,SSE,160,5.0,11.0,47,0.00,,,0.00,336.000000,,2013-03-28 22:32:00,
2013-03-28 17:42:00,71.0,50.0,-100.00,SSE,160,5.0,11.0,47,0.00,,,0.00,336.000000,,2013-03-28 22:42:00,
2013-03-28 17:52:00,71.0,50.0,-100.00,SSE,160,5.0,11.0,47,0.00,,,0.00,336.000000,,2013-03-28 22:52:00,
2013-03-28 18:02:00,69.0,48.0,-100.00,SSE,165,6.0,11.0,48,0.00,,,0.00,205.000000,,2013-03-28 23:02:00,
2013-03-28 18:32:00,69.0,48.0,-100.00,SSE,165,6.0,11.0,48,0.00,,,0.00,205.000000,,2013-03-28 23:32:00,
2013-03-28 18:42:00,69.0,48.0,-100.00,SSE,165,6.0,11.0,48,0.00,,,0.00,205.000000,,2013-03-28 23:42:00,
2013-03-28 18:53:00,69.0,48.0,-100.00,SSE,165,6.0,11.0,48,0.00,,,0.00,205.000000,,2013-03-28 23:53:00,
2013-03-28 19:02:00,68.0,49.0,-100.00,SSE,152,3.0,11.0,51,0.00,,,-99.99,57.000000,,2013-03-29 00:02:00,
2013-03-28 19:33:00,68.0,49.0,-100.00,SSE,152,3.0,11.0,51,0.00,,,-99.99,57.000000,,2013-03-29 00:33:00,
2013-03-28 19:42:00,68.0,49.0,-100.00,SSE,152,3.0,11.0,51,0.00,,,-99.99,57.000000,,2013-03-29 00:42:00,
2013-03-28 19:52:00,68.0,49.0,-100.00,SSE,152,3.0,11.0,51,0.00,,,-99.99,57.000000,,2013-03-29 00:52:00,
2013-03-28 20:02:00,66.0,51.0,-100.00,SE,128,2.0,7.0,59,0.00,,,-99.99,14.000000,,2013-03-29 01:02:00,
2013-03-28 20:22:00,66.0,51.0,-100.00,SE,128,2.0,7.0,59,0.00,,,-99.99,14.000000,,2013-03-29 01:22:00,
2013-03-28 20:33:00,66.0,51.0,-100.00,SE,128,2.0,7.0,59,0.00,,,-99.99,14.000000,,2013-03-29 01:33:00,
2013-03-28 20:42:00,66.0,51.0,-100.00,SE,128,2.0,7.0,59,0.00,,,-99.99,14.000000,,2013-03-29 01:42:00,
2013-03-28 20:52:00,66.0,51.0,-100.00,SE,128,2.0,7.0,59,0.00,,,-99.99,14.000000,,2013-03-29 01:52:00,
2013-03-28 21:02:00,63.0,51.0,-100.00,East,92,2.0,5.0,66,0.00,,,-99.99,0.000000,,2013-03-29 02:02:00,
2013-03-28 21:32:00,63.0,51.0,-100.00,East,92,2.0,5.0,66,0.00,,,-99.99,0.000000,,2013-03-29 02:32:00,
2013-03-28 21:42:00,63.0,51.0,-100.00,East,92,2.0,5.0,66,0.00,,,-99.99,0.000000,,2013-03-29 02:42:00,
2013-03-28 21:53:00,63.0,51.0,-100.00,East,92,2.0,5.0,66,0.00,,,-99.99,0.000000,,2013-03-29 02:53:00,
2013-03-28 22:02:00,63.0,51.0,-100.00,ESE,108,2.0,5.0,65,0.00,,,-99.99,0.000000,,2013-03-29 03:02:00,
2013-03-28 22:32:00,63.0,51.0,-100.00,ESE,108,2.0,5.0,65,0.00,,,-99.99,0.000000,,2013-03-29 03:32:00,
2013-03-28 22:43:00,63.0,51.0,-100.00,ESE,108,2.0,5.0,65,0.00,,,-99.99,0.000000,,2013-03-29 03:43:00,
2013-03-28 22:53:00,63.0,51.0,-100.00,ESE,108,2.0,5.0,65,0.00,,,-99.99,0.000000,,2013-03-29 03:53:00,
2013-03-28 23:02:00,62.0,52.0,-100.00,ESE,104,1.0,4.0,70,0.00,,,-99.99,0.000000,,2013-03-29 04:02:00,
2013-03-28 23:23:00,62.0,52.0,-100.00,ESE,104,1.0,4.0,70,0.00,,,-99.99,0.000000,,2013-03-29 04:23:00,
2013-03-28 23:33:00,62.0,52.0,-100.00,ESE,104,1.0,4.0,70,0.00,,,-99.99,0.000000,,2013-03-29 04:33:00,
2013-03-28 23:43:00,62.0,52.0,-100.00,ESE,104,1.0,4.0,70,0.00,,,-99.99,0.000000,,2013-03-29 04:43:00,
2013-03-28 23:52:00,62.0,52.0,-100.00,ESE,104,1.0,4.0,70,0.00,,,-99.99,0.000000,,2013-03-29 04:52:00,